N313WB KIFP-KIFP

Flight info

Callsign N313WB
Flight time 0h 33m
Altitude 4000
Route BLD
Aircraft C172/L-SFG/C

Departure

Time 2026-04-12 18:48
Airport Laughlin Bullhead International Airport (KIFP)

Arrival

Time 2026-04-12 19:22
Airport Laughlin Bullhead International Airport (KIFP)
Time Latitude Longitude Altitude Speed Heading
2026-04-12 18:28 35.16391 -114.55667 642 ft 0 kts 253°
2026-04-12 18:43 35.16392 -114.55672 630 ft 3 kts 313°
2026-04-12 18:43 35.16407 -114.55680 628 ft 0 kts 232°
2026-04-12 18:44 35.16411 -114.55691 628 ft 6 kts 342°
2026-04-12 18:44 35.16490 -114.55701 628 ft 12 kts 335°
2026-04-12 18:45 35.16508 -114.55747 627 ft 0 kts 264°
2026-04-12 18:45 35.16508 -114.55748 627 ft 1 kts 264°
2026-04-12 18:45 35.16507 -114.55790 621 ft 8 kts 268°
2026-04-12 18:46 35.16515 -114.55863 621 ft 11 kts 318°
2026-04-12 18:46 35.16603 -114.55891 619 ft 11 kts 338°
2026-04-12 18:46 35.16621 -114.55921 618 ft 0 kts 271°
2026-04-12 18:47 35.16621 -114.55933 618 ft 7 kts 266°
2026-04-12 18:47 35.16600 -114.56013 620 ft 11 kts 214°
2026-04-12 18:47 35.16516 -114.56015 622 ft 26 kts 177°
2026-04-12 18:48 35.16194 -114.55995 706 ft 57 kts 182°
2026-04-12 18:48 35.15796 -114.55986 957 ft 57 kts 180°
2026-04-12 18:48 35.15389 -114.55945 1144 ft 66 kts 178°
2026-04-12 18:48 35.14958 -114.55934 1454 ft 58 kts 182°
2026-04-12 18:49 35.14617 -114.56042 1701 ft 55 kts 218°
2026-04-12 18:49 35.14473 -114.56559 1740 ft 77 kts 248°
2026-04-12 18:49 35.14476 -114.57249 1836 ft 88 kts 278°
2026-04-12 18:49 35.14908 -114.57814 1914 ft 96 kts 334°
2026-04-12 18:50 35.15591 -114.57947 1912 ft 102 kts 355°
2026-04-12 18:50 35.16286 -114.57987 1868 ft 104 kts 356°
2026-04-12 18:50 35.17001 -114.58011 2035 ft 106 kts 358°
2026-04-12 18:50 35.17714 -114.58032 2289 ft 98 kts 358°
2026-04-12 18:51 35.18406 -114.58132 2446 ft 101 kts 349°
2026-04-12 18:51 35.19092 -114.58243 2635 ft 97 kts 352°
2026-04-12 18:51 35.19775 -114.58328 2869 ft 96 kts 353°
2026-04-12 18:51 35.20429 -114.58424 3030 ft 98 kts 357°
2026-04-12 18:52 35.21106 -114.58480 3175 ft 102 kts 348°
2026-04-12 18:52 35.21804 -114.58604 3298 ft 102 kts 351°
2026-04-12 18:52 35.22528 -114.58671 3493 ft 104 kts 356°
2026-04-12 18:52 35.23271 -114.58696 3501 ft 107 kts 355°
2026-04-12 18:53 35.24008 -114.58723 3600 ft 104 kts 356°
2026-04-12 18:53 35.24744 -114.58715 3630 ft 104 kts 357°
2026-04-12 18:53 35.25459 -114.58750 3662 ft 104 kts 354°
2026-04-12 18:53 35.26168 -114.58801 3715 ft 104 kts 353°
2026-04-12 18:54 35.26886 -114.58827 3878 ft 98 kts 356°
2026-04-12 18:54 35.27555 -114.58792 3934 ft 92 kts 11°
2026-04-12 18:54 35.28246 -114.58665 3967 ft 103 kts
2026-04-12 18:54 35.28952 -114.58636 4118 ft 104 kts
2026-04-12 18:55 35.29685 -114.58614 4207 ft 103 kts 356°
2026-04-12 18:55 35.30398 -114.58601 4332 ft 103 kts 356°
2026-04-12 18:55 35.31108 -114.58595 4402 ft 105 kts 354°
2026-04-12 18:55 35.31850 -114.58601 4438 ft 108 kts 353°
2026-04-12 18:56 35.32615 -114.58637 4468 ft 110 kts 354°
2026-04-12 18:56 35.33385 -114.58689 4512 ft 110 kts 351°
2026-04-12 18:56 35.34150 -114.58755 4521 ft 111 kts 351°
2026-04-12 18:56 35.34917 -114.58839 4524 ft 111 kts 349°
2026-04-12 18:57 35.35682 -114.58891 4543 ft 107 kts 352°
2026-04-12 18:57 35.36410 -114.59017 4531 ft 105 kts 322°
2026-04-12 18:57 35.36656 -114.59767 4525 ft 96 kts 269°
2026-04-12 18:57 35.36839 -114.60540 4571 ft 99 kts 302°
2026-04-12 18:58 35.37526 -114.60775 4467 ft 114 kts 13°
2026-04-12 18:58 35.38224 -114.60389 4473 ft 109 kts 25°
2026-04-12 18:58 35.38898 -114.60010 4535 ft 106 kts 26°
2026-04-12 18:58 35.39543 -114.60120 4490 ft 98 kts 296°
2026-04-12 18:59 35.39385 -114.60709 4551 ft 79 kts 200°
2026-04-12 18:59 35.38818 -114.60867 4516 ft 87 kts 192°
2026-04-12 18:59 35.38231 -114.61005 4570 ft 82 kts 201°
2026-04-12 18:59 35.37758 -114.61309 4675 ft 73 kts 210°
2026-04-12 19:00 35.37367 -114.61612 4850 ft 61 kts 213°
2026-04-12 19:00 35.37041 -114.61934 4940 ft 60 kts 214°
2026-04-12 19:00 35.36684 -114.62241 5008 ft 66 kts 214°
2026-04-12 19:00 35.36320 -114.62559 5213 ft 57 kts 213°
2026-04-12 19:01 35.35984 -114.62825 5307 ft 62 kts 212°
2026-04-12 19:01 35.35692 -114.62931 5282 ft 73 kts 180°
2026-04-12 19:01 35.35330 -114.62467 5229 ft 91 kts 107°
2026-04-12 19:01 35.35253 -114.61714 5233 ft 87 kts 110°
2026-04-12 19:02 35.35113 -114.61027 5280 ft 84 kts 113°
2026-04-12 19:02 35.34935 -114.60328 5305 ft 88 kts 117°
2026-04-12 19:02 35.34735 -114.59620 5331 ft 87 kts 121°
2026-04-12 19:02 35.34548 -114.58910 5397 ft 87 kts 115°
2026-04-12 19:03 35.34421 -114.58182 5475 ft 89 kts 110°
2026-04-12 19:03 35.34252 -114.57470 5463 ft 85 kts 129°
2026-04-12 19:03 35.33937 -114.56875 5455 ft 83 kts 135°
2026-04-12 19:03 35.33613 -114.56303 5487 ft 78 kts 139°
2026-04-12 19:04 35.33226 -114.55781 5404 ft 86 kts 139°
2026-04-12 19:04 35.32864 -114.55220 5413 ft 83 kts 135°
2026-04-12 19:04 35.32513 -114.54672 5422 ft 81 kts 139°
2026-04-12 19:04 35.32155 -114.54167 5448 ft 77 kts 145°
2026-04-12 19:05 35.31753 -114.53691 5421 ft 83 kts 146°
2026-04-12 19:05 35.31332 -114.53222 5382 ft 81 kts 147°
2026-04-12 19:05 35.30905 -114.52809 5404 ft 76 kts 154°
2026-04-12 19:05 35.30458 -114.52488 5415 ft 76 kts 161°
2026-04-12 19:06 35.29996 -114.52182 5458 ft 74 kts 154°
2026-04-12 19:06 35.29569 -114.51792 5444 ft 78 kts 153°
2026-04-12 19:06 35.29179 -114.51344 5408 ft 79 kts 136°
2026-04-12 19:06 35.28908 -114.50745 5381 ft 80 kts 132°
2026-04-12 19:07 35.28597 -114.50195 5389 ft 76 kts 144°
2026-04-12 19:07 35.28273 -114.49685 5354 ft 83 kts 125°
2026-04-12 19:07 35.28588 -114.49036 5214 ft 104 kts 17°
2026-04-12 19:07 35.29309 -114.49067 5177 ft 107 kts 349°
2026-04-12 19:08 35.29982 -114.49341 5102 ft 98 kts 304°
2026-04-12 19:08 35.30200 -114.50028 5070 ft 85 kts 266°
2026-04-12 19:08 35.30239 -114.50741 5013 ft 83 kts 264°
2026-04-12 19:08 35.30290 -114.51434 5025 ft 82 kts 264°
2026-04-12 19:09 35.30285 -114.52133 5022 ft 82 kts 255°
2026-04-12 19:09 35.30224 -114.52812 5025 ft 81 kts 255°
2026-04-12 19:09 35.30140 -114.53480 5044 ft 77 kts 248°
2026-04-12 19:09 35.29945 -114.54072 4985 ft 77 kts 235°
2026-04-12 19:10 35.29635 -114.54595 4972 ft 69 kts 208°
2026-04-12 19:10 35.29170 -114.54423 4937 ft 85 kts 140°
2026-04-12 19:10 35.28743 -114.53919 4920 ft 86 kts 148°
2026-04-12 19:10 35.28267 -114.53465 4889 ft 88 kts 152°
2026-04-12 19:11 35.27785 -114.53007 4895 ft 86 kts 152°
2026-04-12 19:11 35.27297 -114.52596 4926 ft 84 kts 156°
2026-04-12 19:11 35.26769 -114.52264 4853 ft 89 kts 163°
2026-04-12 19:11 35.26206 -114.51948 4824 ft 87 kts 161°
2026-04-12 19:12 35.25650 -114.51653 4774 ft 87 kts 163°
2026-04-12 19:12 35.25085 -114.51386 4755 ft 88 kts 166°
2026-04-12 19:12 35.24514 -114.51125 4747 ft 86 kts 167°
2026-04-12 19:12 35.23956 -114.50886 4725 ft 85 kts 167°
2026-04-12 19:13 35.23398 -114.50671 4695 ft 83 kts 170°
2026-04-12 19:13 35.22857 -114.50440 4701 ft 80 kts 164°
2026-04-12 19:13 35.22344 -114.50141 4681 ft 83 kts 162°
2026-04-12 19:13 35.21825 -114.49834 4675 ft 82 kts 162°
2026-04-12 19:14 35.21270 -114.49690 4599 ft 84 kts 180°
2026-04-12 19:14 35.20675 -114.49694 4500 ft 86 kts 186°
2026-04-12 19:14 35.20108 -114.49757 4531 ft 77 kts 192°
2026-04-12 19:14 35.19580 -114.49875 4508 ft 78 kts 192°
2026-04-12 19:15 35.19048 -114.50028 4438 ft 81 kts 196°
2026-04-12 19:15 35.18506 -114.50234 4418 ft 84 kts 196°
2026-04-12 19:15 35.17975 -114.50485 4459 ft 78 kts 208°
2026-04-12 19:15 35.17556 -114.50933 4303 ft 83 kts 220°
2026-04-12 19:16 35.17216 -114.51430 4215 ft 68 kts 228°
2026-04-12 19:16 35.16987 -114.51969 3984 ft 72 kts 234°
2026-04-12 19:16 35.16786 -114.52521 3811 ft 70 kts 237°
2026-04-12 19:16 35.16594 -114.53064 3663 ft 69 kts 236°
2026-04-12 19:17 35.16412 -114.53621 3479 ft 73 kts 237°
2026-04-12 19:17 35.16185 -114.54168 3247 ft 73 kts 231°
2026-04-12 19:17 35.15985 -114.54755 2992 ft 76 kts 233°
2026-04-12 19:17 35.15752 -114.55333 2764 ft 75 kts 231°
2026-04-12 19:18 35.15522 -114.55898 2665 ft 74 kts 231°
2026-04-12 19:18 35.15267 -114.56451 2485 ft 75 kts 234°
2026-04-12 19:18 35.15106 -114.57067 2349 ft 80 kts 256°
2026-04-12 19:18 35.15293 -114.57734 2235 ft 89 kts 300°
2026-04-12 19:19 35.15853 -114.58069 2067 ft 92 kts 354°
2026-04-12 19:19 35.16504 -114.58048 1890 ft 93 kts
2026-04-12 19:19 35.17146 -114.58002 1802 ft 91 kts 356°
2026-04-12 19:19 35.17785 -114.57981 1705 ft 90 kts 359°
2026-04-12 19:20 35.18330 -114.57758 1688 ft 84 kts 44°
2026-04-12 19:20 35.18613 -114.57148 1570 ft 82 kts 84°
2026-04-12 19:20 35.18685 -114.56522 1523 ft 69 kts 114°
2026-04-12 19:20 35.18347 -114.56147 1393 ft 67 kts 165°
2026-04-12 19:21 35.17950 -114.56096 1196 ft 53 kts 193°
2026-04-12 19:21 35.17589 -114.56086 992 ft 54 kts 187°
2026-04-12 19:21 35.17176 -114.56067 883 ft 63 kts 181°
2026-04-12 19:21 35.16769 -114.56034 754 ft 54 kts 178°
2026-04-12 19:22 35.16428 -114.56008 636 ft 42 kts 178°
2026-04-12 19:22 35.16231 -114.55992 637 ft 14 kts 169°
2026-04-12 19:22 35.16209 -114.55933 638 ft 9 kts 47°
2026-04-12 19:22 35.16258 -114.55888 636 ft 2 kts 30°
2026-04-12 19:23 35.16259 -114.55888 636 ft 0 kts 30°
2026-04-12 19:23 35.16260 -114.55887 637 ft 2 kts 31°
2026-04-12 19:24 35.16280 -114.55826 638 ft 11 kts 76°
2026-04-12 19:24 35.16275 -114.55753 638 ft 8 kts 162°
2026-04-12 19:24 35.16239 -114.55747 639 ft 3 kts 175°
2026-04-12 19:24 35.16234 -114.55747 640 ft 2 kts 175°
2026-04-12 19:25 35.16182 -114.55743 642 ft 10 kts 176°
2026-04-12 19:25 35.16111 -114.55732 645 ft 10 kts 148°
2026-04-12 19:25 35.16094 -114.55651 645 ft 10 kts 95°
2026-04-12 19:25 35.16059 -114.55632 647 ft 5 kts 266°
2026-04-12 19:26 35.16054 -114.55641 647 ft 0 kts 177°